Location: Peterborough
(44.3091°N, 78.3197°W)
Time: 18:19:42
(UTC-04:00)

Tiangong - Visible Passes

Search period start: 14 March 2026 00:00
Search period end: 24 March 2026 00:00
Orbit: 381 x 390 km, 41.5° (Epoch: 14 March)

Date Brightness Start Highest point End Pass type
(mag) Time Alt. Az. Time Alt. Az. Time Alt. Az.
14 Mar -0.2 05:34:09 22° SSE 05:34:09 22° SSE 05:36:30 10° ESE visible
15 Mar -1.3 06:09:34 26° SW 06:10:54 41° S 06:13:56 10° E visible
16 Mar 0.1 05:12:42 22° ESE 05:12:42 22° ESE 05:14:15 10° E visible
16 Mar -1.6 06:44:54 10° WSW 06:47:57 50° S 06:51:04 10° ESE visible
17 Mar -1.7 05:47:58 45° SSW 05:48:19 48° S 05:51:24 10° E visible
18 Mar 0.8 04:50:58 15° ESE 04:50:58 15° ESE 04:51:39 10° E visible
18 Mar -1.6 06:23:10 18° WSW 06:25:15 47° S 06:28:19 10° ESE visible
19 Mar -1.2 05:26:08 42° SE 05:26:08 42° SE 05:28:35 10° ESE visible
20 Mar -1.4 06:01:17 29° SW 06:02:18 39° SSW 06:05:18 10° ESE visible
21 Mar 0.1 05:04:16 21° ESE 05:04:16 21° ESE 05:05:32 10° ESE visible
21 Mar -0.5 06:36:28 10° WSW 06:38:56 21° SSW 06:41:24 10° SSE visible
22 Mar -0.9 05:39:28 29° S 05:39:28 29° S 05:41:55 10° SE visible
23 Mar -0.1 06:14:43 13° SW 06:15:30 14° SSW 06:17:17 10° S visible
